Tracking 29892 objects as of 21-Nov-2024
HD Live streaming from Space Station
objects crossing your sky now

THORAD AGENA D R/B

Track THORAD AGENA D R/B now!
10-day predictions


NORAD ID: 4159
Int'l Code: 1969-082AB
Perigee: 910.1 km
Apogee: 1,083.6 km
Inclination: 70.0 °
Period: 104.9 minutes
Semi major axis: 7367 km
RCS: 4.723 m2 (large)
Launch date: September 30, 1969
Source: United States (US)
Launch site: AIR FORCE WESTERN TEST RANGE (AFWTR)

Note: This is a ROCKET BODY
Your satellite tracking list
Your tracking list is empty




NASA's NSSDC Master Catalog

Two Line Element Set (TLE):
1 04159U 69082AB  24325.43410329  .00000128  00000-0  18466-3 0  9995
2 04159  69.9621 329.8611 0117737 312.4911  46.6279 13.72758032759835
Source of the keplerian elements: AFSPC